Regional Weather Roundup
Issued by NWS

Home | Current Version | Previous Version | Graphics & Text | Print | Product List | Glossary On
Versions: 1 2 3 4 5 6 7 8 9 10 11 12 13 14 15 16 17 18 19 20 21 22 23 24 25 26 27 28 29 30 31 32 33 34 35 36 37 38 39 40 41 42 43 44 45 46 47 48 49 50
000
ASUS43 KOAX 230702
RWRNE

WEATHER ROUNDUP FOR NEBRASKA
NATIONAL WEATHER SERVICE OMAHA NE
200 AM CDT MON OCT 23 2017

NOTES: SATELLITE DATA IS BEING USED TO AUGMENT CLOUD COVER ABOVE
       12000 FEET.
       "FAIR" INDICATES FEW OR NO CLOUDS BELOW 12,000 FEET WITH NO
       SIGNIFICANT WEATHER AND/OR OBSTRUCTIONS TO VISIBILITY.


NEZ001>004-019>022-054>056-230800-
NEBRASKA PANHANDLE

CITY           SKY/WX    TMP DP  RH WIND       PRES   REMARKS
SCOTTSBLUFF    CLOUDY    60  31  33 W18G29    30.06R
ALLIANCE       CLOUDY    53  31  42 NW14      30.04R
CHADRON        CLOUDY    56  31  38 NW10      30.10R
GORDON         FAIR      56  32  40 N22G31    30.03R
KIMBALL        CLEAR     58  29  33 W30G39    30.12S
SIDNEY         CLEAR     52  30  43 W12       30.09R
$$

NEZ057>060-069>072-079>082-230800-
SOUTHWEST NEBRASKA

CITY           SKY/WX    TMP DP  RH WIND       PRES   REMARKS
NORTH PLATTE   CLOUDY    40  36  86 NW5       29.98S
IMPERIAL       CLEAR     45  32  60 W7        30.03S
LEXINGTON      CLEAR     45  32  60 W3        29.95F
MCCOOK         CLEAR     50  30  46 W12       30.00S
OGALLALA       CLEAR     42  33  69 CALM      30.01R
$$

NEZ005>010-023>029-035>040-094-230800-
NORTH CENTRAL NEBRASKA

CITY           SKY/WX    TMP DP  RH WIND       PRES   REMARKS
VALENTINE      CLOUDY    57  39  51 N17       29.97R
AINSWORTH      PTCLDY    59  35  41 NW25G33   29.95R
BROKEN BOW     CLEAR     52  35  52 W10       29.91F
O`NEILL        CLOUDY    54  38  54 W12       29.87R
ORD            PTCLDY    46  35  65 CALM      29.88F
THEDFORD       CLOUDY    53  36  52 NW8       29.98R
$$

NEZ041-046>049-061>064-073>077-083>087-230800-
SOUTH CENTRAL NEBRASKA

CITY           SKY/WX    TMP DP  RH WIND       PRES   REMARKS
GRAND ISLAND   CLEAR     51  30  44 SW12      29.92S
AURORA         CLEAR     47  31  53 SW8       29.92S
HASTINGS       CLEAR     50  29  44 SW7       29.94F
HEBRON         CLEAR     52  31  44 SW3       29.95S
HOLDREGE       CLEAR     55  29  38 W10       29.95F
KEARNEY        CLEAR     53  28  38 W10       29.94S
YORK           PTCLDY    48  32  53 S10       29.92F
$$

NEZ011>018-030>034-042>045-230800-
NORTHEAST NEBRASKA

CITY           SKY/WX    TMP DP  RH WIND       PRES   REMARKS
NORFOLK        CLOUDY    52  31  44 SW5       29.85F
ALBION         CLOUDY    54  31  42 SW5       29.88F
BLAIR          PTCLDY    50  34  53 S9        29.91F
COLUMBUS       MOCLDY    52  32  46 SW8       29.90F
FREMONT        PTCLDY    54  32  43 S6        29.90F
TEKAMAH        PTCLDY    44  35  70 SE6       29.90F
WAYNE          MOCLDY    52  30  43 S8        29.85F
$$

NEZ050>053-065>068-078-088>093-230800-
SOUTHEAST NEBRASKA

CITY           SKY/WX    TMP DP  RH WIND       PRES   REMARKS
LINCOLN        CLEAR     53  31  42 SW7       29.94S
OMAHA EPPLEY   PTCLDY    47  36  65 SE7       29.93F
BEATRICE       PTCLDY    51  33  50 S8        29.95S
FALLS CITY     CLEAR     50  35  56 S10       29.95F
NEBRASKA CITY  CLEAR     48  35  62 SW10      29.94F
PLATTSMOUTH    CLEAR     48  35  60 S8        29.92F
$$

NEZ044-045-051>053-067-230800-
OMAHA AREA

CITY           SKY/WX    TMP DP  RH WIND       PRES   REMARKS
OMAHA EPPLEY   PTCLDY    47  36  65 SE7       29.93F
BLAIR          PTCLDY    50  34  53 S9        29.91F
FREMONT        PTCLDY    54  32  43 S6        29.90F
MILLARD        PTCLDY    49  36  62 CALM      29.92F
OFFUTT AFB     CLEAR     46  35  66 SE5       29.92F
PLATTSMOUTH    CLEAR     48  35  60 S8        29.92F
WAHOO          FAIR      47  34  59 S6        29.91F
$$




USA.gov is the U.S. government's official web portal to all federal, state and local government web resources and services.